This demonstration page uses our WeatherBlox Daily Observations layout. Learn more.

Left ArrowRight Arrow

41.12389, -100.76542

Hourly Observations for February 18, 2017

Temp ( °F °C ) Dew Point ( °F °C ) Humidity (%) Winds ( mph kmh ) Pressure ( in mb ) Visibility ( mi km ) Precip ( " mm )
12:53 am 00:53 Clear 32 0 23 -5 69 69 Calm 29.76 1008 10 16 0.00 0.00
1:53 am 01:53 Clear 29 -1.7 22 -5.6 75 75 Calm 29.77 1008 10 16 0.00 0.00
2:53 am 02:53 Clear 25 -3.9 22 -5.6 88 88 Calm 29.78 1009 10 16 0.00 0.00
3:53 am 03:53 Clear 25 -3.9 21 -6.1 85 85 NW 3 6 29.79 1009 10 16 0.00 0.00
4:53 am 04:53 Clear 24 -4.4 21 -6.1 88 88 Calm 29.80 1009 10 16 0.00 0.00
5:53 am 05:53 Clear 25 -3.9 21 -6.1 85 85 NW 5 7 29.83 1010 10 16 0.00 0.00
6:53 am 06:53 Clear 24 -4.4 20 -6.7 84 84 NW 3 6 29.85 1011 10 16 0.00 0.00
7:53 am 07:53 Sunny 28 -2.2 22 -5.6 78 78 WNW 10 17 29.86 1011 10 16 0.00 0.00
8:53 am 08:53 Sunny 32 0 26 -3.3 79 79 NW 3 6 29.87 1012 10 16 0.00 0.00
9:53 am 09:53 Sunny 39 3.9 29 -1.7 67 67 Calm 29.86 1011 10 16 0.00 0.00
10:53 am 10:53 Sunny 50 10 29 -1.7 44 44 Calm 29.85 1011 10 16 0.00 0.00
11:53 am 11:53 Sunny 58 14.4 29 -1.7 33 33 Calm 29.82 1010 10 16 0.00 0.00
12:53 pm 12:53 Sunny 62 16.7 28 -2.2 28 28 S 14 22 29.76 1008 10 16 0.00 0.00
1:53 pm 13:53 Sunny 63 17.2 30 -1.1 29 29 VRB 7 11 29.75 1007 10 16 0.00 0.00
2:53 pm 14:53 Sunny 65 18.3 30 -1.1 27 27 SSE 10 17 29.75 1007 10 16 0.00 0.00
3:53 pm 15:53 Sunny 63 17.2 29 -1.7 28 28 S 9 15 29.76 1008 10 16 0.00 0.00
4:53 pm 16:53 Sunny 62 16.7 30 -1.1 30 30 SSE 9 15 29.75 1007 10 16 0.00 0.00
5:53 pm 17:53 Sunny 58 14.4 30 -1.1 35 35 SE 6 9 29.75 1007 10 16 0.00 0.00
6:53 pm 18:53 Clear 46 7.8 30 -1.1 54 54 ESE 8 13 29.77 1008 10 16 0.00 0.00
7:53 pm 19:53 Clear 44 6.7 31 -0.6 60 60 ESE 7 11 29.77 1008 10 16 0.00 0.00
8:53 pm 20:53 Clear 41 5 30 -1.1 65 65 E 5 7 29.78 1009 10 16 0.00 0.00
9:53 pm 21:53 Clear 40 4.4 31 -0.6 70 70 ESE 7 11 29.78 1009 10 16 0.00 0.00
10:53 pm 22:53 Clear 40 4.4 32 0 73 73 ESE 9 15 29.75 1007 10 16 0.00 0.00
11:53 pm 23:53 Clear 38 3.3 31 -0.6 76 76 E 9 15 29.73 1007 10 16 0.00 0.00

Powered by AerisWeather